Vorticity
7 7 8 12 20 27 29 26 17 10 5 4 5 5 4 2 2 2 3 5 8 11 13 15 15 16 16 17 17 18 17 16 14 12 10 9 9 10 11 12 11 10 9 9 9 9 8 8 8 9 10 10 9 6 4 3 6 8 9 10 9 7 6 6 4 2 1 -0 -4
7 7 7 7 12 18 26 31 27 20 12 6 5 4 5 4 3 2 1 2 4 6 8 11 13 14 15 16 16 17 17 16 15 14 12 11 10 11 12 12 11 10 10 10 10 10 9 8 8 9 10 11 10 8 5 1 1 3 4 5 6 5 5 6 6 2 -2 -4 -1
7 7 7 7 7 11 17 25 30 28 23 14 8 5 4 5 4 3 2 1 1 2 4 7 9 12 13 14 15 16 16 15 15 15 15 14 13 12 12 12 11 11 10 10 11 10 9 8 7 8 9 11 11 9 6 3 -0 -1 -1 -0 -1 -0 2 5 11 12 9 2 1
6 7 7 7 7 7 10 15 23 28 30 26 17 10 6 4 4 4 3 2 1 1 2 3 5 8 10 12 13 14 15 15 15 15 16 16 16 15 15 13 12 11 11 11 11 11 10 9 8 9 11 13 13 12 10 6 3 1 0 -0 -1 -3 -3 -1 6 14 20 21 9
7 7 7 7 7 7 7 8 13 21 27 31 27 20 13 7 5 4 4 4 3 2 2 2 3 4 7 9 11 12 13 15 15 15 15 15 16 17 17 16 13 12 11 11 12 13 12 12 11 12 13 15 16 15 13 9 7 5 4 4 4 2 -2 -4 -2 5 15 27 22
7 7 6 7 7 7 7 7 8 12 18 26 30 28 23 16 10 6 4 4 4 3 2 2 1 2 3 5 7 9 11 12 14 14 14 14 14 15 16 16 15 13 12 12 13 13 14 14 13 14 15 16 17 16 14 12 9 7 6 7 9 8 6 1 -2 0 7 19 27
8 7 7 6 7 7 7 7 7 8 10 16 24 28 29 26 19 12 8 5 4 4 3 3 2 2 2 2 4 6 8 9 11 12 13 13 13 14 14 14 14 13 13 13 13 12 12 11 11 12 13 14 15 15 14 13 10 8 7 7 9 11 11 8 5 4 7 15 24
9 8 7 6 6 7 7 8 7 7 7 9 15 21 27 29 26 21 16 10 7 5 4 3 3 3 2 2 2 3 4 6 8 9 11 12 13 13 13 14 13 12 12 11 11 11 10 9 8 8 9 10 11 12 13 13 12 11 9 8 9 10 12 12 10 10 11 16 23
9 9 8 7 7 7 7 7 8 7 7 7 9 13 19 25 27 27 24 19 13 9 6 4 4 3 3 2 2 2 3 3 4 6 8 10 11 12 13 14 13 12 12 11 11 11 10 9 8 7 7 8 9 11 13 14 14 14 13 11 10 10 11 13 12 13 14 17 22
9 9 9 8 8 7 7 7 8 8 8 7 7 8 11 17 22 25 27 26 22 17 12 8 5 4 3 3 2 2 2 2 3 4 5 6 8 10 11 12 13 13 12 12 11 11 11 11 10 9 8 8 10 12 13 14 14 14 13 13 12 11 11 12 12 13 14 15 18
9 9 9 9 8 7 7 7 7 8 8 8 7 7 8 10 15 19 23 26 26 24 20 15 11 7 5 4 3 3 2 2 2 2 3 4 5 7 8 10 11 12 12 12 12 12 12 13 12 12 11 11 12 12 12 11 11 11 11 10 10 10 10 9 9 9 9 10 11
9 9 9 9 9 8 7 7 7 7 8 8 8 7 7 7 10 13 17 22 25 26 25 23 19 14 10 7 5 4 3 3 2 2 2 2 3 4 5 7 8 9 11 11 11 11 12 12 13 13 13 13 12 11 10 9 8 8 7 7 7 6 6 5 5 4 4 4 4
9 9 9 9 9 8 8 7 7 7 7 8 8 8 8 7 8 9 11 15 19 22 25 26 25 22 18 14 10 7 5 4 3 2 2 2 2 2 3 4 5 6 8 9 10 11 11 12 13 13 14 14 12 10 9 8 7 6 5 5 5 4 4 3 2 2 1 -0 -2
9 9 9 9 9 9 8 8 8 7 7 7 8 8 8 8 7 7 8 10 13 16 20 23 25 25 24 21 17 14 10 7 5 4 3 2 2 2 2 3 3 4 5 6 8 9 10 11 12 12 13 13 12 10 8 7 6 5 5 5 4 4 4 4 4 3 1 -1 -3
9 9 9 9 9 9 9 8 8 7 7 7 7 8 8 8 8 7 7 8 9 11 14 17 21 23 25 25 24 21 17 13 10 7 5 3 2 2 2 2 3 3 4 4 5 6 8 9 10 11 12 11 10 9 8 6 5 5 5 4 5 5 5 6 6 6 4 2 0
9 9 9 9 9 9 9 8 8 8 8 7 7 7 8 8 8 8 7 7 8 9 10 12 15 18 21 24 25 25 23 21 17 13 9 6 4 3 2 2 2 3 3 3 4 4 5 7 8 9 10 11 10 9 8 7 6 5 5 4 4 4 5 6 7 8 8 6 5
8 9 9 9 9 9 9 9 8 8 8 7 7 7 8 8 9 8 8 7 7 7 8 9 11 13 15 18 21 24 25 25 24 21 17 13 9 6 4 3 3 3 3 3 3 3 4 4 6 7 8 10 10 10 10 9 9 8 7 6 5 4 4 5 6 8 9 9 8
8 9 9 9 9 9 9 8 8 8 8 8 7 7 7 8 8 9 9 8 7 7 7 8 9 10 11 13 16 19 22 24 26 25 24 21 16 12 9 6 4 3 3 3 3 3 3 3 4 4 6 7 8 9 10 11 11 10 10 9 8 7 6 5 5 6 7 8 9
8 9 9 9 9 9 9 8 8 8 8 8 8 8 7 7 8 9 9 9 8 8 7 7 8 9 9 10 12 13 16 19 22 25 26 26 24 20 16 12 8 6 4 3 3 3 3 3 3 3 4 5 6 7 8 9 10 11 11 11 11 10 9 8 7 7 7 8 8
9 9 9 9 9 9 8 8 8 8 8 8 8 8 8 8 8 8 9 9 9 8 8 7 7 7 8 9 10 11 12 13 16 20 23 26 27 26 23 20 16 12 9 6 5 4 3 3 3 3 3 3 4 4 5 6 7 9 9 10 10 10 10 10 9 9 9 9 9
9 9 9 9 9 9 9 8 8 8 8 8 9 8 8 8 8 8 8 9 9 9 8 8 7 7 7 8 9 9 10 11 12 14 17 20 24 26 27 26 23 20 16 12 9 7 5 4 3 3 3 3 3 3 4 4 5 6 6 7 8 8 9 9 9 9 9 9 9
9 9 8 8 9 9 9 9 9 8 8 9 9 9 9 9 8 8 8 8 9 9 9 8 7 7 6 7 8 8 9 10 10 11 12 14 17 21 24 27 27 26 23 20 17 13 10 7 6 4 3 3 3 4 4 4 4 4 4 5 5 5 6 7 7 8 8 8 8
9 9 9 9 9 9 9 9 9 9 9 9 9 9 9 9 9 8 8 8 8 9 9 9 9 8 7 6 7 7 8 9 9 10 10 10 11 14 17 22 25 27 27 26 24 21 18 14 11 8 6 4 4 4 4 4 4 4 4 4 4 4 4 4 5 5 6 6 6
9 9 9 9 9 9 9 9 9 9 9 8 8 8 8 9 9 9 8 8 8 8 9 9 9 9 8 7 6 6 7 8 9 9 9 9 9 10 11 14 18 22 25 27 27 27 25 23 19 16 12 9 6 5 4 4 4 4 4 4 4 4 4 4 4 4 5 5 5
9 9 9 10 9 9 9 9 9 9 9 8 8 8 8 8 8 9 8 8 8 8 8 9 10 10 9 8 7 6 6 7 8 9 9 10 9 9 9 9 11 14 17 21 24 26 27 27 26 24 21 17 13 10 7 5 4 4 4 4 4 4 4 4 4 5 5 5 4
10 10 10 10 10 10 9 9 8 8 9 9 8 8 8 8 8 8 9 9 8 8 8 8 9 10 10 9 8 7 6 6 6 7 9 10 10 10 9 8 8 9 10 13 17 21 24 26 28 28 27 25 22 18 14 10 7 5 4 4 4 4 4 5 5 5 5 5 5
11 10 10 11 11 10 10 9 9 8 9 9 9 9 8 8 8 8 9 9 9 8 8 8 9 10 10 10 9 8 7 6 6 6 7 9 10 10 10 9 8 7 7 8 10 13 16 20 23 26 28 29 28 26 23 20 16 12 9 6 5 4 4 4 5 5 5 6 6
12 11 11 11 11 11 11 10 10 9 9 9 9 9 9 8 8 8 9 9 9 9 9 8 8 9 10 11 10 9 8 7 6 6 6 7 8 9 10 11 10 9 8 7 6 7 9 11 15 19 23 26 28 29 28 27 25 22 18 14 10 8 6 5 4 4 5 5 5
13 12 11 11 12 12 12 11 11 10 9 9 9 9 9 9 9 9 9 9 9 9 9 9 9 9 9 10 11 11 9 8 7 6 6 6 7 8 9 10 11 10 9 8 7 6 5 6 8 11 14 18 22 25 27 28 29 28 27 24 21 17 13 9 7 6 5 5 5
13 12 12 11 12 12 12 12 11 11 10 10 10 10 10 10 10 10 10 10 10 10 9 9 9 9 9 10 11 11 11 10 8 7 6 6 6 7 8 9 10 11 11 10 9 7 6 5 5 6 7 10 14 17 21 24 26 28 29 29 28 26 23 19 15 12 9 7 6
14 13 12 12 12 12 12 12 11 11 11 10 10 10 11 11 11 11 11 11 10 10 10 10 9 9 9 10 10 11 11 11 10 8 7 6 6 6 7 8 9 10 11 11 11 9 8 6 5 5 5 5 7 9 13 16 20 22 25 27 28 29 28 27 25 21 18 14 11
15 15 14 13 12 12 11 11 11 11 11 11 11 11 11 12 12 12 12 11 11 11 10 10 10 10 10 10 10 11 11 12 11 10 8 7 6 6 6 7 8 9 10 11 11 11 10 9 7 6 5 4 4 5 6 9 12 15 18 21 23 25 27 28 28 28 26 24 20
16 16 15 15 13 12 11 11 11 11 11 12 12 12 12 12 12 12 12 12 12 11 11 10 10 10 10 10 10 11 11 12 12 11 10 9 7 7 6 6 7 8 9 10 11 12 12 11 10 8 7 6 5 4 4 5 6 8 11 14 17 20 23 25 27 28 29 29 28
17 17 17 17 16 15 14 13 13 13 13 13 13 13 13 13 13 13 13 13 13 12 11 10 9 9 10 10 10 11 11 12 12 12 11 10 9 7 7 6 7 7 8 9 10 11 12 12 11 11 10 8 7 5 4 4 4 5 6 8 11 14 17 20 23 25 27 28 29
17 17 18 18 18 18 17 17 17 17 16 16 15 15 14 14 13 13 13 13 13 12 12 10 9 9 9 10 10 11 11 12 12 12 12 11 10 9 7 7 7 7 7 8 9 10 11 12 12 12 12 11 9 8 6 5 4 4 4 5 7 9 12 15 18 21 23 25 27
17 17 17 18 19 19 19 19 19 20 20 19 19 18 17 16 15 14 14 13 13 13 12 11 10 9 9 10 10 11 11 12 12 12 12 12 11 10 9 8 7 7 7 7 8 9 10 11 12 12 13 13 12 10 9 7 6 5 5 4 5 6 8 10 13 15 18 21 23
16 16 16 17 18 18 18 18 19 20 21 21 21 20 19 18 17 16 15 14 13 13 12 12 10 9 9 9 10 11 11 11 12 12 12 12 12 11 10 9 8 7 7 7 8 8 9 10 11 12 13 13 13 13 11 10 8 7 6 5 5 5 6 7 9 11 13 15 18
16 16 16 16 17 17 16 16 16 17 18 19 20 19 19 18 17 16 15 14 13 13 13 12 11 9 9 9 10 11 11 11 12 12 12 12 12 11 10 9 9 8 8 7 7 8 9 10 11 11 12 13 14 14 13 12 11 9 8 7 6 6 6 6 8 9 10 11 13
16 16 16 16 16 16 16 15 15 15 15 15 16 16 17 16 16 15 14 14 13 13 12 12 11 10 9 9 10 11 11 11 12 12 12 12 12 12 11 10 9 9 8 8 8 8 8 9 10 11 12 13 13 14 14 14 13 11 10 9 8 7 7 7 7 8 9 10 10
16 16 16 16 16 16 16 15 14 14 13 13 14 14 14 14 14 14 13 13 13 12 12 12 11 10 10 9 10 11 11 11 12 12 12 12 12 11 11 10 10 9 9 8 8 8 8 9 9 10 11 12 13 13 14 14 14 13 12 11 9 8 8 7 8 8 9 10 10
16 15 15 15 15 15 15 14 14 13 13 13 13 13 12 12 12 12 12 12 12 12 12 12 11 11 10 10 10 11 11 11 11 12 12 12 11 11 11 10 10 10 9 9 8 8 9 9 9 10 11 11 12 13 13 14 14 14 13 12 11 10 9 8 8 9 9 10 10
Height
5633 5633 5633 5633 5633 5634 5634 5635 5635 5636 5636 5637 5638 5639 5640 5640 5641 5642 5642 5643 5643 5644 5645 5646 5647 5648 5649 5650 5651 5652 5653 5655 5656 5658 5660 5662 5664 5666 5668 5670 5672 5674 5676 5678 5680 5682 5684 5686 5689 5691 5693 5695 5696 5698 5700 5702 5704 5705 5707 5709 5711 5713 5715 5717 5720 5721 5721 5721 5720
5632 5631 5631 5631 5631 5631 5632 5632 5633 5634 5634 5635 5636 5636 5637 5638 5639 5640 5640 5641 5641 5642 5643 5644 5645 5646 5647 5648 5649 5650 5651 5652 5654 5656 5657 5659 5661 5663 5665 5667 5669 5671 5673 5676 5677 5679 5681 5683 5686 5688 5690 5692 5694 5696 5697 5699 5701 5703 5705 5706 5708 5710 5712 5714 5716 5716 5716 5717 5717
5630 5630 5630 5630 5630 5630 5630 5630 5631 5631 5632 5632 5633 5634 5635 5636 5636 5637 5638 5639 5639 5640 5641 5642 5643 5644 5645 5646 5646 5648 5649 5650 5651 5653 5654 5656 5658 5660 5662 5664 5666 5668 5670 5672 5674 5676 5678 5680 5682 5685 5687 5689 5691 5693 5694 5696 5698 5700 5702 5704 5706 5707 5709 5710 5712 5713 5714 5715 5715
5628 5628 5628 5628 5628 5628 5628 5628 5628 5629 5629 5630 5631 5631 5632 5633 5634 5635 5636 5636 5637 5638 5639 5640 5641 5641 5642 5643 5645 5646 5647 5648 5649 5651 5652 5653 5655 5656 5659 5661 5662 5665 5667 5669 5671 5673 5675 5676 5679 5681 5683 5686 5688 5690 5692 5693 5695 5697 5698 5700 5702 5704 5706 5707 5708 5710 5711 5712 5713
5626 5626 5626 5626 5626 5626 5626 5626 5626 5626 5627 5627 5628 5629 5630 5631 5631 5632 5633 5634 5635 5636 5636 5637 5638 5639 5640 5641 5642 5643 5645 5646 5646 5648 5649 5651 5652 5654 5655 5657 5659 5661 5663 5666 5668 5670 5672 5673 5675 5677 5680 5682 5684 5687 5689 5691 5692 5693 5695 5696 5699 5701 5702 5704 5706 5707 5708 5709 5711
5623 5623 5623 5624 5624 5624 5624 5624 5624 5624 5625 5625 5626 5626 5627 5628 5629 5630 5630 5631 5631 5632 5634 5635 5636 5637 5638 5639 5640 5641 5642 5643 5644 5645 5646 5648 5649 5651 5652 5654 5656 5658 5660 5662 5665 5667 5669 5671 5672 5674 5676 5678 5681 5683 5685 5687 5689 5690 5691 5693 5695 5697 5698 5701 5702 5704 5706 5707 5709
5621 5621 5621 5621 5621 5621 5621 5622 5622 5622 5622 5622 5623 5624 5624 5625 5626 5627 5627 5628 5629 5630 5631 5632 5633 5635 5636 5636 5638 5638 5639 5641 5641 5643 5644 5645 5646 5648 5650 5651 5653 5655 5657 5659 5661 5663 5666 5668 5670 5671 5673 5675 5677 5679 5681 5683 5685 5687 5689 5690 5692 5693 5695 5697 5699 5701 5703 5705 5705
5618 5618 5618 5619 5619 5619 5619 5619 5620 5620 5620 5620 5621 5621 5621 5622 5623 5624 5624 5625 5626 5627 5628 5629 5631 5631 5633 5634 5635 5636 5637 5638 5639 5640 5641 5642 5644 5645 5646 5648 5650 5652 5654 5656 5658 5660 5662 5664 5666 5669 5670 5672 5674 5676 5678 5680 5682 5684 5686 5687 5689 5690 5692 5694 5696 5698 5700 5700 5700
5615 5616 5616 5616 5616 5616 5616 5617 5617 5617 5617 5618 5618 5618 5619 5620 5620 5621 5621 5622 5623 5624 5625 5626 5627 5628 5630 5631 5632 5633 5634 5636 5636 5637 5639 5640 5641 5642 5644 5645 5647 5649 5651 5652 5654 5656 5658 5660 5662 5665 5667 5669 5671 5673 5675 5677 5679 5681 5682 5684 5686 5687 5689 5691 5693 5695 5696 5696 5697
5612 5613 5613 5613 5613 5614 5614 5614 5615 5615 5615 5616 5616 5616 5616 5617 5617 5618 5618 5619 5620 5621 5622 5623 5624 5626 5627 5628 5629 5630 5631 5633 5634 5635 5636 5637 5639 5640 5641 5642 5644 5646 5647 5649 5651 5653 5655 5657 5659 5661 5663 5666 5668 5670 5671 5673 5676 5677 5679 5681 5683 5685 5686 5688 5690 5691 5693 5693 5694
5609 5610 5610 5610 5611 5611 5611 5611 5612 5612 5612 5613 5613 5613 5614 5614 5615 5615 5616 5616 5617 5618 5619 5620 5621 5622 5624 5625 5626 5627 5628 5630 5631 5632 5634 5635 5636 5637 5638 5640 5641 5643 5644 5646 5648 5650 5651 5653 5655 5657 5659 5661 5664 5666 5668 5670 5672 5674 5676 5677 5680 5682 5684 5686 5687 5688 5689 5690 5691
5606 5606 5607 5607 5607 5608 5608 5609 5609 5609 5610 5610 5611 5611 5611 5611 5612 5612 5613 5613 5614 5615 5616 5616 5618 5619 5620 5621 5622 5624 5625 5626 5628 5629 5631 5632 5633 5635 5636 5637 5638 5640 5641 5643 5645 5646 5648 5650 5652 5654 5656 5657 5660 5662 5664 5666 5668 5670 5672 5674 5676 5678 5681 5683 5685 5686 5686 5687 5688
5603 5603 5604 5604 5604 5605 5605 5606 5606 5606 5607 5607 5608 5608 5608 5609 5609 5610 5610 5611 5611 5612 5612 5613 5615 5616 5617 5618 5619 5621 5622 5623 5625 5626 5627 5629 5630 5632 5633 5634 5636 5637 5638 5640 5641 5643 5645 5647 5648 5650 5652 5654 5656 5658 5661 5662 5665 5666 5668 5671 5672 5674 5676 5679 5681 5682 5683 5684 5685
5599 5600 5600 5601 5601 5601 5602 5602 5603 5603 5604 5604 5605 5605 5606 5606 5606 5607 5607 5608 5608 5609 5610 5611 5611 5612 5613 5615 5616 5617 5618 5620 5621 5623 5624 5626 5627 5629 5630 5631 5633 5634 5635 5637 5638 5640 5642 5643 5645 5647 5649 5651 5652 5654 5656 5658 5661 5662 5664 5666 5668 5671 5672 5674 5676 5678 5679 5681 5682
5596 5596 5596 5597 5597 5598 5599 5599 5600 5600 5601 5601 5602 5602 5603 5603 5604 5604 5605 5605 5606 5606 5607 5607 5608 5609 5610 5611 5612 5614 5615 5616 5618 5619 5621 5622 5624 5625 5627 5628 5630 5631 5632 5634 5635 5637 5638 5640 5641 5643 5645 5647 5649 5651 5652 5654 5656 5658 5661 5662 5664 5666 5668 5670 5671 5673 5675 5676 5678
5592 5592 5593 5593 5594 5595 5595 5596 5596 5597 5597 5598 5598 5599 5600 5600 5601 5601 5601 5602 5603 5603 5604 5605 5605 5606 5607 5608 5609 5610 5611 5613 5614 5616 5617 5619 5620 5621 5623 5625 5626 5628 5629 5631 5632 5634 5635 5636 5638 5640 5641 5643 5645 5647 5648 5650 5652 5654 5656 5658 5660 5662 5664 5665 5667 5669 5671 5672 5674
5588 5588 5589 5589 5590 5591 5591 5592 5593 5593 5594 5595 5595 5596 5596 5597 5597 5598 5599 5599 5600 5601 5601 5602 5602 5603 5604 5605 5606 5606 5608 5609 5611 5612 5613 5615 5616 5618 5619 5621 5623 5624 5626 5627 5629 5631 5632 5633 5635 5636 5638 5640 5641 5643 5645 5646 5648 5650 5652 5654 5656 5658 5660 5661 5663 5665 5666 5668 5670
5584 5584 5585 5586 5586 5587 5587 5588 5589 5590 5590 5591 5592 5592 5593 5594 5594 5595 5596 5596 5597 5597 5598 5599 5599 5600 5601 5602 5602 5603 5604 5606 5607 5608 5609 5611 5612 5614 5616 5617 5619 5621 5622 5624 5626 5627 5629 5630 5632 5633 5635 5636 5638 5639 5641 5643 5644 5646 5648 5650 5652 5653 5655 5657 5659 5661 5662 5664 5666
5580 5580 5581 5581 5582 5583 5583 5584 5585 5586 5587 5587 5588 5589 5590 5590 5591 5591 5592 5593 5594 5594 5595 5596 5596 5597 5598 5599 5599 5600 5601 5602 5603 5604 5606 5607 5608 5610 5611 5613 5615 5616 5618 5620 5622 5623 5625 5627 5628 5630 5631 5633 5634 5636 5637 5639 5641 5642 5644 5646 5647 5649 5651 5653 5655 5656 5658 5660 5662
5575 5576 5576 5577 5578 5578 5579 5580 5581 5582 5583 5584 5585 5586 5586 5587 5587 5588 5589 5590 5590 5591 5592 5592 5593 5594 5595 5596 5596 5597 5598 5599 5600 5601 5602 5603 5605 5606 5608 5609 5611 5612 5614 5616 5617 5619 5621 5623 5625 5626 5628 5629 5631 5632 5634 5635 5637 5638 5640 5642 5643 5645 5647 5649 5651 5652 5654 5656 5658
5571 5571 5572 5572 5573 5574 5575 5576 5577 5578 5579 5580 5581 5582 5582 5583 5584 5585 5586 5586 5587 5588 5588 5589 5590 5591 5591 5592 5593 5594 5595 5596 5597 5598 5599 5600 5601 5602 5604 5605 5607 5608 5610 5611 5613 5615 5617 5619 5621 5622 5624 5626 5627 5629 5630 5632 5633 5635 5636 5638 5640 5641 5643 5645 5646 5648 5650 5652 5654
5566 5567 5567 5568 5569 5570 5571 5572 5573 5575 5576 5576 5577 5578 5579 5580 5580 5581 5582 5583 5584 5585 5585 5586 5587 5587 5588 5589 5590 5591 5591 5592 5594 5595 5596 5596 5598 5599 5600 5601 5603 5604 5606 5607 5609 5611 5613 5614 5616 5618 5620 5622 5623 5625 5627 5628 5630 5631 5633 5634 5636 5637 5639 5641 5643 5645 5646 5648 5650
5562 5562 5563 5564 5565 5566 5567 5568 5569 5571 5571 5572 5573 5574 5575 5576 5577 5577 5578 5579 5580 5581 5582 5582 5583 5584 5585 5586 5587 5587 5588 5589 5590 5591 5592 5593 5594 5596 5597 5598 5599 5601 5602 5603 5605 5606 5608 5610 5612 5614 5616 5617 5619 5621 5623 5625 5626 5628 5629 5631 5632 5633 5635 5637 5639 5641 5642 5644 5646
5557 5558 5559 5560 5561 5562 5563 5564 5565 5566 5567 5569 5569 5570 5571 5572 5573 5574 5575 5576 5576 5577 5578 5579 5580 5581 5581 5582 5583 5584 5585 5586 5587 5588 5589 5590 5591 5592 5593 5595 5596 5597 5598 5600 5601 5602 5604 5606 5607 5609 5611 5613 5615 5616 5619 5621 5622 5624 5626 5627 5628 5630 5631 5633 5635 5636 5638 5640 5641
5553 5554 5555 5556 5556 5558 5559 5560 5561 5562 5563 5564 5565 5566 5567 5568 5569 5570 5571 5572 5573 5574 5575 5576 5576 5577 5578 5579 5580 5581 5582 5583 5584 5585 5586 5587 5588 5589 5590 5591 5592 5593 5595 5596 5597 5599 5600 5601 5603 5604 5606 5608 5610 5612 5614 5616 5618 5620 5621 5623 5625 5626 5628 5629 5631 5632 5634 5636 5637
5549 5550 5551 5551 5552 5553 5555 5556 5557 5558 5559 5560 5561 5562 5563 5564 5566 5566 5567 5568 5569 5570 5571 5572 5573 5574 5575 5576 5577 5578 5579 5580 5581 5581 5582 5584 5585 5586 5587 5588 5589 5590 5591 5593 5594 5595 5596 5597 5599 5600 5602 5604 5606 5607 5610 5611 5613 5616 5617 5619 5621 5622 5624 5626 5627 5628 5630 5631 5633
5544 5545 5546 5547 5548 5549 5550 5551 5553 5554 5555 5556 5557 5558 5559 5561 5561 5563 5564 5565 5566 5566 5568 5568 5569 5570 5571 5572 5573 5574 5575 5576 5577 5578 5579 5580 5581 5582 5583 5585 5586 5587 5588 5589 5590 5591 5593 5594 5595 5596 5598 5599 5601 5603 5605 5607 5609 5611 5613 5615 5616 5618 5620 5621 5623 5625 5626 5627 5629
5540 5541 5542 5543 5544 5545 5546 5547 5548 5550 5551 5552 5553 5554 5555 5556 5558 5559 5560 5561 5562 5563 5564 5565 5566 5566 5568 5569 5570 5571 5572 5573 5574 5575 5576 5577 5578 5579 5580 5581 5582 5583 5585 5586 5587 5588 5589 5590 5591 5593 5594 5596 5597 5599 5601 5602 5604 5606 5608 5610 5612 5614 5616 5617 5619 5620 5622 5623 5625
5536 5537 5538 5539 5540 5541 5542 5543 5544 5545 5546 5547 5549 5550 5551 5553 5554 5555 5556 5557 5558 5559 5560 5561 5562 5563 5564 5565 5566 5567 5568 5569 5570 5571 5572 5573 5575 5576 5576 5578 5579 5580 5581 5582 5583 5585 5586 5587 5588 5589 5591 5592 5593 5595 5596 5598 5600 5601 5603 5605 5607 5609 5611 5612 5614 5616 5618 5619 5621
5532 5532 5533 5534 5535 5536 5537 5539 5540 5541 5542 5543 5544 5546 5547 5549 5550 5551 5552 5553 5554 5555 5556 5557 5558 5560 5561 5561 5562 5564 5565 5566 5567 5568 5569 5570 5571 5572 5573 5574 5576 5576 5578 5579 5580 5581 5582 5583 5585 5586 5587 5589 5590 5591 5593 5594 5596 5597 5599 5601 5602 5604 5606 5607 5609 5611 5613 5614 5616
5527 5528 5529 5530 5531 5532 5533 5534 5535 5536 5537 5539 5540 5542 5543 5545 5546 5547 5548 5549 5550 5551 5552 5554 5555 5556 5556 5558 5559 5560 5561 5562 5563 5564 5566 5566 5568 5569 5570 5571 5572 5573 5574 5575 5576 5577 5579 5580 5581 5582 5584 5585 5587 5588 5589 5591 5592 5593 5595 5596 5598 5599 5601 5602 5604 5606 5607 5609 5611
5523 5524 5525 5526 5527 5528 5529 5530 5531 5532 5533 5535 5536 5538 5539 5541 5542 5543 5544 5545 5546 5548 5549 5550 5551 5552 5553 5554 5555 5556 5557 5559 5560 5561 5562 5563 5564 5565 5566 5567 5569 5570 5571 5572 5573 5574 5575 5576 5578 5579 5581 5582 5583 5585 5586 5587 5588 5590 5591 5592 5594 5595 5596 5598 5599 5601 5602 5604 5606
5519 5520 5521 5521 5522 5523 5524 5525 5526 5528 5529 5531 5532 5533 5535 5536 5537 5539 5540 5541 5542 5544 5545 5546 5547 5548 5549 5550 5551 5552 5554 5555 5556 5557 5558 5559 5561 5562 5563 5564 5565 5566 5567 5568 5569 5571 5571 5573 5574 5576 5577 5578 5580 5581 5582 5583 5585 5586 5587 5589 5590 5591 5592 5594 5595 5596 5598 5599 5600
5514 5515 5516 5517 5518 5519 5520 5521 5522 5524 5525 5526 5528 5529 5531 5532 5533 5535 5536 5537 5538 5540 5541 5542 5543 5544 5545 5546 5547 5549 5550 5551 5552 5553 5555 5556 5557 5558 5559 5561 5561 5563 5564 5565 5566 5567 5568 5569 5571 5572 5573 5575 5576 5577 5579 5580 5581 5582 5584 5585 5586 5587 5589 5590 5591 5592 5593 5594 5596
5510 5511 5512 5513 5514 5515 5516 5517 5518 5520 5521 5522 5524 5525 5526 5527 5529 5530 5531 5533 5534 5536 5537 5538 5539 5540 5541 5542 5544 5545 5546 5547 5548 5550 5551 5552 5553 5555 5556 5557 5558 5559 5561 5561 5562 5563 5565 5566 5567 5568 5570 5571 5573 5574 5575 5576 5578 5579 5580 5581 5583 5584 5585 5586 5587 5588 5589 5590 5591
5506 5507 5508 5509 5510 5511 5512 5513 5514 5516 5517 5518 5519 5521 5522 5523 5524 5526 5527 5528 5530 5531 5533 5534 5536 5536 5538 5539 5540 5541 5542 5543 5545 5546 5547 5548 5550 5551 5552 5553 5555 5556 5557 5558 5559 5560 5561 5562 5564 5565 5566 5568 5569 5570 5571 5573 5574 5575 5576 5578 5579 5580 5581 5582 5584 5585 5586 5586 5587
5502 5503 5504 5505 5506 5507 5508 5510 5511 5512 5513 5514 5515 5516 5517 5519 5520 5521 5523 5524 5526 5528 5529 5531 5532 5533 5534 5535 5536 5537 5538 5539 5541 5542 5544 5545 5546 5547 5549 5550 5551 5552 5553 5554 5556 5556 5558 5559 5560 5561 5563 5564 5566 5567 5568 5569 5571 5572 5573 5574 5576 5576 5578 5579 5580 5581 5582 5583 5584
5499 5499 5500 5501 5502 5503 5505 5506 5507 5508 5509 5511 5511 5512 5513 5515 5516 5517 5519 5521 5522 5524 5525 5527 5528 5529 5530 5531 5532 5533 5534 5536 5537 5538 5540 5541 5542 5544 5545 5546 5548 5549 5550 5551 5552 5553 5554 5556 5556 5558 5559 5561 5562 5563 5565 5566 5567 5568 5570 5571 5572 5573 5574 5575 5576 5577 5578 5580 5581
5495 5496 5497 5497 5498 5500 5501 5502 5503 5505 5506 5506 5508 5509 5510 5511 5512 5513 5515 5516 5518 5520 5521 5523 5524 5525 5526 5527 5528 5529 5531 5532 5533 5535 5536 5537 5539 5540 5541 5543 5544 5545 5546 5547 5549 5550 5551 5552 5553 5554 5556 5557 5558 5560 5561 5562 5564 5565 5566 5567 5568 5570 5571 5571 5573 5574 5575 5576 5577
5491 5492 5493 5494 5495 5496 5497 5498 5500 5501 5502 5503 5504 5505 5506 5507 5508 5510 5511 5513 5514 5516 5517 5519 5520 5521 5522 5523 5525 5526 5527 5528 5529 5531 5532 5533 5535 5536 5538 5539 5541 5542 5543 5544 5545 5546 5547 5549 5550 5551 5552 5554 5555 5556 5557 5559 5560 5561 5563 5564 5565 5566 5567 5568 5569 5570 5571 5572 5573
5487 5488 5489 5490 5491 5492 5493 5494 5496 5497 5498 5499 5500 5501 5502 5504 5505 5506 5507 5509 5511 5512 5513 5515 5516 5517 5519 5520 5521 5522 5523 5524 5526 5527 5528 5530 5531 5533 5534 5536 5537 5538 5540 5541 5542 5543 5544 5545 5546 5547 5549 5550 5551 5553 5554 5555 5557 5558 5559 5560 5561 5563 5564 5565 5566 5567 5568 5569 5570